Regional Weather Roundup
Issued by NWS

Home | Current Version | Previous Version | Graphics & Text | Print | Product List | Glossary On
Versions: 1 2 3 4 5 6 7 8 9 10 11 12 13 14 15 16 17 18 19 20 21 22 23 24 25 26 27 28 29 30 31 32 33 34 35 36 37 38 39 40 41 42 43 44 45 46 47 48 49 50
000
ASUS43 KMKX 232011
RWRWI

WISCONSIN REGIONAL WEATHER ROUNDUP
NATIONAL WEATHER SERVICE MILWAUKEE/SULLIVAN WI
300 PM CDT TUE SEP 23 2014

NOTE: "FAIR" INDICATES FEW OR NO CLOUDS BELOW 12,000 FEET WITH NO
SIGNIFICANT WEATHER AND/OR OBSTRUCTIONS TO VISIBILITY.

WIZ001-002-006>008-014>016-023>028-232100-
NORTHWEST WISCONSIN

CITY           SKY/WX    TMP DP  RH WIND       PRES   REMARKS
SUPERIOR ARPT  SUNNY     75  52  45 SW12G18   30.16F
ASHLAND        SUNNY     75  51  43 S8G22     30.20F
HAYWARD        SUNNY     72  48  42 S13G21    30.21F
SIREN          MOSUNNY   73  49  43 S13       30.19F
CUMBERLAND     CLEAR     70  45  40 S9        30.21F
RICE LAKE      SUNNY     72  50  45 S7        30.22F
CHETEK         PTCLDY    73  53  50 S10       30.22F
LADYSMITH      SUNNY     73  52  47 S9        30.25F
EAU CLAIRE     MOSUNNY   73  50  44 S14       30.21F
MENOMONIE      PTCLDY    73  50  43 S12G17    30.22F
NEW RICHMOND   MOSUNNY   73  49  42 S9        30.19F
OSCEOLA        PTSUNNY   74  52  47 S10G18    30.21F
$$

WIZ003>005-009-010-017-018-232100-
NORTH CENTRAL WISCONSIN

CITY           SKY/WX    TMP DP  RH WIND       PRES   REMARKS
MANITOWISH WTR CLEAR     72  49  43 SW8       30.24S
ARBOR VITAE    SUNNY     72  48  42 S8        30.24F
WOODRUFF       SUNNY     72  48  42 S8        30.24F
RHINELANDER    SUNNY     72  48  42 S8        30.26F
EAGLE RIVER    SUNNY     72  44  36 SW5       30.24F
LAND O LAKES   SUNNY     73  43  34 SW6       30.25S
PHILLIPS       MOSUNNY   72  50  45 SW8       30.23F
TOMAHAWK       SUNNY     72  49  43 CALM      30.25F
MEDFORD        SUNNY     70  50  49 S10       30.26S
MERRILL        SUNNY     73  52  47 SW6       30.25F
$$

WIZ029-030-035-036-043>047-232100-
CENTRAL WISCONSIN

CITY           SKY/WX    TMP DP  RH WIND       PRES   REMARKS
WAUSAU         SUNNY     72  49  44 S10       30.25F
MOSINEE        SUNNY     72  52  49 S10       30.27F
MARSHFIELD     SUNNY     73  50  44 S9        30.25F
STEVENS POINT  SUNNY     71  47  43 SW12      30.27F
WAUPACA        SUNNY     76  49  38 S5        30.26F
WAUTOMA        SUNNY     76  51  41 SW7       30.27F
WISC RAPIDS    SUNNY     73  50  44 S10       30.27F
CAMP DOUGLAS   MOSUNNY   73  52  46 S8        30.26F
$$

WIZ011>013-019>022-031-037>040-048>050-232100-
NORTHEAST WISCONSIN

CITY           SKY/WX    TMP DP  RH WIND       PRES   REMARKS
ANTIGO         SUNNY     71  51  48 SW8       30.27F
SHAWANO        CLEAR     75  50  40 CALM      30.26F
OCONTO         CLEAR     72  55  55 S6        30.25F
STURGEON BAY   SUNNY     72  54  53 W10       30.28S
GREEN BAY      SUNNY     74  54  49 SW9       30.27F
MANITOWOC      SUNNY     68  54  60 SE9       30.28F
APPLETON       SUNNY     72  50  46 SW7       30.28F
CLINTONVILLE   SUNNY     73  48  40 W7        30.26F
OSHKOSH        SUNNY     73  52  47 SW7       30.26F
$$

WIZ032>034-041-042-053>061-232100-
SOUTHWEST WISCONSIN

CITY           SKY/WX    TMP DP  RH WIND       PRES   REMARKS
LA CROSSE      MOSUNNY   76  52  43 S9        30.23F
SPARTA         SUNNY     73  49  43 S7        30.25F
VIROQUA        PTCLDY    72  50  45 S13       30.26F
BOSCOBEL       MOSUNNY   75  48  38 CALM      30.26F
PRAIRIE DU CHI SUNNY     72  45  37 SE6       30.25F
PLATTEVILLE    SUNNY     73  48  41 S9        30.27F
$$

WIZ056-057-062-063-064-067-068-232100-
SOUTH CENTRAL WISCONSIN

CITY           SKY/WX    TMP DP  RH WIND       PRES   REMARKS
REEDSBURG      CLEAR     71  52  50 S12       30.26F
BARABOO/DELLS  SUNNY     73  48  40 SW5       30.27F
LONE ROCK      SUNNY     76  48  37 S8        30.26F
MINERAL POINT  MOSUNNY   73  45  35 S6        30.27F
MADISON        MOSUNNY   72  47  40 S5        30.28F
MIDDLETON      CLEAR     75  44  33 S9        30.28F
WATERTOWN      SUNNY     73  50  44 CALM      30.27F
MONROE         SUNNY     72  46  40 S6        30.28F
JANESVILLE     SUNNY     73  46  38 S7        30.28F
$$

WIZ051-052-058>065-066-070>072-232100-
SOUTHEAST WISCONSIN

CITY           SKY/WX    TMP DP  RH WIND       PRES   REMARKS
MILWAUKEE      MOSUNNY   73  49  42 VRB7      30.29F
WAUKESHA       SUNNY     72  48  43 SW7       30.30F
MILWAUKEE/TIMM SUNNY     73  46  38 CALM      30.32R
RACINE         SUNNY     71  51  49 S13       30.31F
BURLINGTON     SUNNY     73  46  38 SW3       30.29F
KENOSHA        SUNNY     73  51  46 VRB6      30.30F
FOND DU LAC    SUNNY     73  51  46 W6        30.27F
SHEBOYGAN      SUNNY     75  50  41 SW8       30.28F
WEST BEND      SUNNY     72  46  40 W5        30.28F
JUNEAU         SUNNY     72  49  44 SW6       30.29F
$$

LSZ147-162-232100-
LAKE SUPERIOR

STATION/POSITION TIME  TEMP    WIND        PRES    WAVE
                       AIR SEA DIR/SP/G            HT/PER
                 (UTC) (F)     (DEG/KT/KT) (MB)    (FT/S)
W MID LAKE BUOY  1950   54 50  220/  6/  6 1022.8F   1/ 3
DEVILS ISLAND    2000   62      50/  3/  3 1022.5F
PORT WING        1900   63      30/  5/  7 1022.4F
SAXON HARBOR     1900   76     230/  5/  8 1022.7F
$$

LMZ867-665-643>646-232100-
LAKE MICHIGAN

STATION/POSITION TIME  TEMP    WIND        PRES    WAVE
                       AIR SEA DIR/SP/G            HT/PER
                 (UTC) (F)     (DEG/KT/KT) (MB)    (FT/S)
CHAMBERS ISLAND  1900   68     170/  5/ 11 1024.7F
S GREEN BAY BUOY 2000   65                 1025.5F
N MID LAKE BUOY  1950   59 58  200/ 10/ 12 1025.1S   1/ 4
NORTHPORT PIER   1900   68     150/  6/  8 1024.4F
KEWAUNEE LAKESHO 1900   57     180/ 10/ 11 1024.7F
SHEBOYGAN LAKESH 2000   60 52  170/ 14/ 15 1025.7F
PORT WASHINGTON  1940   64      CALM  /  5 1026.1F
ATWATER BUOY     2000   61     130/  6/  8 1026.5F
S MID LAKE BUOY  1950   62 61  190/  8/ 10 1026.9F   1/ 3
KENOSHA   LAKESH 2000   62     160/  9/ 12 1025.4F
$$

TC  - TEMPERATURE IN CELSIUS
VSB - VISIBILITY IN STATUTE MILES
WCI - WIND CHILL INDEX
HX  - HEAT INDEX




USA.gov is the U.S. government's official web portal to all federal, state and local government web resources and services.